FENGYUN 1C DEB, 29793

Orbit data source: Space-Track

FENGYUN 1C DEB, 29793 is space debris in SSO originally from a launch on Mon, 10 May 1999 UTC launched from the Taiyaun Space Center, China (TSC). Fengyun 1C debris stems from the Chinese weather satellite Fengyun-1C, which was intentionally destroyed by a Chinese anti-satellite missile in 2007. This event dramatically increased the amount of space debris, with thousands of trackable fragments posing hazards to satellites and human spaceflight. The Fengyun 1C debris cloud has become a focal point in discussions about space sustainability and the need for international regulations to prevent the creation of new debris.

Loading next visibility...
Identifier
29793, 1999-025CK
Orbit
SSO
Country
Flag of CNCN / PRC
Related business
Manufacturer
Unknown
Mission
Spacecraft
Bus & Motor
Unknown
Mass
Unknown
Launch date (UTC)
1999-05-10 (27 years ago)
Launch vehicle
Unknown
Launch site
Taiyaun Space Center, China (TSC)
Object type
Payload
Rocket body
Debris
Shape & HBR
Unknown shape, 0.1 m
Radar Cross Section
Small (<0.1 m²)

Expand to show TLE details & history
Last TLE update: 23 hours ago

TLE from 23 hours ago
0 FENGYUN 1C DEB
1 29793U 99025CK  25349.98673883  .00001278  00000-0  80303-3 0  9995
2 29793  98.3542 168.4903 0143649 328.9904 183.2440 14.01088201961942
Epoch: 2025-12-15T23:40Z
TLE epoch observation values (Epoch: 2025-12-15T23:40:54.234Z)
Latitude
27.57593°
Longitude
-87.23737°
Altitude
997.659 km
Speed
7.302 km/s
True Right ascension
23h 31m 27s
True Declination
27° 26' 23"
Sunlit
Object was in daylight at epoch
Visualization orbit readout
Latitude
Unknown
Longitude
Unknown
Altitude
Unknown
Speed
Unknown
Apparent Right ascension
Unknown
Apparent Declination
Unknown
Sunlit
N/A
Visualization observer readout
Local Sidereal Time
20:59:24
Azimuth
Unknown
Elevation
Unknown
Doppler factor
Unknown
Orbital elements
Apogee altitude
991.562 km
Perigee altitude
782.83 km
Semi-major axis
7,265.333 km
Eccentricity
0.01436
Inclination
98.3542°
RAAN
168.4903°
Arg. of periapsis
328.9904°
True anomaly
183.15249°
Mean anomaly
183.244°
Eccentric anomaly
183.19808°
Mean motion
3.50477 °/min
Orbital period
102.72 mins
BSTAR
0.00080303
Loading maneuver chart data...
Computing Atmospheric mass density...

Documentation

Showing up to 5 results
|